Theta_e
317 317 316 316 314 314 315 314 315 314 313 312 314 315 313 311 312 311 311 312 311 312 311 312 311 311 305 297 296 308 312 311 308 310 309 306 302 301 299 302 305 302 304 307 308 308 309
317 317 316 315 314 314 314 314 313 313 314 314 311 312 313 312 310 311 311 311 311 311 311 310 309 310 302 291 306 308 307 306 306 309 308 308 303 303 301 302 302 304 305 304 307 307 308
317 316 315 315 314 314 314 314 313 313 313 313 314 310 311 312 313 311 311 312 310 309 310 310 310 306 299 296 306 306 306 304 309 311 307 310 308 304 303 300 306 305 301 304 305 306 305
318 316 315 315 313 314 313 314 314 314 313 313 312 312 309 311 311 312 311 312 311 309 310 308 309 301 293 304 307 306 306 304 311 313 313 312 311 305 303 304 302 300 301 294 302 305 306
318 315 315 314 313 314 314 314 313 314 314 313 312 311 309 309 311 311 312 312 310 308 309 308 299 296 289 305 302 304 305 306 310 311 313 312 309 303 301 296 294 296 291 293 298 305 303
318 315 315 314 313 313 314 314 313 313 313 312 311 311 310 309 310 310 312 310 309 305 304 304 302 290 293 292 299 303 307 309 305 306 305 305 302 295 294 293 285 289 289 292 294 300 301
318 315 314 313 313 312 313 312 312 312 312 311 310 310 310 308 309 310 305 296 292 289 294 290 291 290 293 299 305 302 303 304 305 301 294 298 293 289 292 292 292 291 290 290 294 302 299
317 314 314 313 312 312 312 312 312 311 311 311 310 310 310 307 308 309 299 291 293 293 286 295 294 294 297 301 294 299 303 296 297 290 293 290 288 293 296 294 292 291 289 290 293 300 299
317 314 313 312 311 311 311 311 310 310 310 310 310 309 309 307 309 302 295 294 302 300 288 292 295 295 297 299 294 296 299 296 293 289 289 289 291 296 296 292 290 289 288 288 290 296 296
316 313 312 312 310 310 310 309 310 311 310 310 309 308 308 307 300 296 294 300 301 300 282 287 290 294 298 297 292 301 302 298 293 288 289 289 296 295 294 292 291 287 292 291 291 291 286
315 312 311 310 309 309 309 309 310 309 309 309 308 307 307 307 295 294 297 301 300 294 272 289 292 300 298 293 293 294 302 299 290 290 290 287 293 293 292 292 293 289 292 290 290 287 287
313 311 310 309 309 309 309 309 309 309 309 307 307 307 307 305 303 299 300 298 299 276 272 285 291 289 290 292 293 297 296 302 300 292 292 292 297 295 293 295 293 292 289 289 288 287 282
312 310 309 308 308 309 308 308 308 308 307 307 307 309 306 302 295 301 300 294 279 271 287 284 286 288 288 288 290 291 291 291 288 284 285 290 292 293 294 291 293 290 286 281 280 278 279
311 310 308 308 308 308 307 308 307 307 307 307 307 306 305 302 300 301 298 285 274 281 286 290 288 288 286 288 288 289 289 288 292 290 286 285 282 290 292 291 289 288 286 279 274 275 279
310 309 308 307 307 307 307 307 307 307 307 307 305 297 301 303 303 302 292 272 273 280 290 287 287 283 283 288 287 287 287 288 291 291 284 285 284 293 292 293 291 288 286 285 277 276 276
310 309 307 306 307 306 306 307 307 307 306 305 294 293 295 302 304 299 287 280 283 288 292 290 285 286 280 285 283 285 285 291 291 293 291 287 283 292 293 293 292 289 289 282 279 272 273
310 308 307 306 305 306 306 307 307 307 305 304 293 294 297 304 303 294 280 282 287 292 293 290 288 287 286 284 284 284 284 291 294 292 290 288 286 287 292 289 286 287 284 284 284 280 276
309 308 307 306 305 305 306 306 307 306 304 298 291 291 299 303 292 290 282 285 294 291 293 292 291 290 289 290 286 283 285 289 295 293 288 289 286 284 287 293 293 289 286 285 280 277 277
309 308 307 306 305 305 306 306 306 305 304 292 287 294 301 301 286 281 285 289 291 290 289 289 288 290 290 288 284 286 287 292 295 292 289 290 283 281 283 288 290 290 289 287 284 281 276
308 308 307 306 305 304 305 305 305 303 305 293 287 283 293 297 295 287 285 286 287 292 290 290 288 289 286 285 286 285 286 294 295 295 297 293 284 280 278 280 285 284 287 288 285 278 281
308 308 307 306 305 304 305 305 305 301 305 292 285 283 286 287 287 284 286 287 287 288 290 292 288 288 285 283 283 283 286 290 294 297 292 289 280 281 283 285 286 285 286 288 286 287 283
308 307 307 306 305 304 304 305 304 300 298 286 284 284 285 282 284 284 286 286 287 288 290 288 288 288 287 285 284 283 286 286 288 290 292 289 280 281 279 284 285 283 285 285 288 288 287
308 307 307 306 305 304 304 304 303 300 294 283 282 284 284 281 282 286 283 285 285 288 291 294 293 289 288 288 289 289 288 288 288 287 285 286 283 280 277 281 281 279 283 284 285 288 289
308 307 306 306 305 304 304 304 302 300 293 286 283 283 282 279 279 281 285 286 286 286 288 291 293 290 292 293 293 289 288 287 287 286 287 282 280 277 272 277 270 281 285 286 285 286 289
307 307 306 306 305 304 304 304 303 300 298 287 285 283 280 277 279 280 283 283 285 286 288 291 289 288 288 290 286 284 283 284 285 286 285 285 281 276 274 273 278 281 284 284 283 284 287
307 307 306 306 304 304 304 304 303 301 299 288 286 285 282 280 278 281 279 280 279 281 287 288 289 289 292 289 285 279 277 280 280 284 289 289 287 282 278 274 273 280 286 288 287 280 289
307 307 306 305 304 304 304 303 303 301 300 292 288 286 284 280 280 279 278 278 280 279 280 282 284 286 289 286 284 280 277 281 279 279 281 284 285 281 280 280 280 285 287 289 279 282 290
307 306 305 305 304 304 304 303 302 302 300 293 289 289 284 281 281 284 285 279 280 279 279 281 283 284 285 283 282 280 279 279 277 279 279 281 279 279 281 280 274 287 288 285 287 290 291
308 306 305 305 304 304 304 303 302 301 300 294 287 291 289 284 283 286 286 286 286 284 281 280 281 285 283 286 285 284 281 282 277 276 281 279 283 281 282 281 286 288 288 290 289 288 289
Wind_Speed
9 9 10 11 11 14 14 15 15 16 15 15 17 16 13 13 14 13 12 12 11 10 10 11 6 4 3 0 3 1 6 7 12 4 9 7 8 5 5 6 6 6 11 13 19 2 2
9 9 10 10 12 12 13 15 15 17 18 15 14 16 16 11 13 12 12 10 10 9 8 7 8 5 1 2 2 5 3 7 12 8 10 6 8 6 4 9 7 7 7 17 12 10 4
10 10 9 10 11 11 13 14 12 14 16 17 14 15 16 16 13 11 11 12 8 7 6 6 7 2 2 4 3 3 4 5 9 9 12 7 5 5 3 5 5 3 8 7 10 14 7
11 10 9 9 11 13 12 14 15 15 16 16 15 13 13 15 15 12 11 12 8 6 5 4 5 2 3 2 2 5 6 7 8 9 7 8 2 5 2 3 5 4 5 7 6 14 7
10 9 9 9 11 13 13 14 15 16 15 15 15 14 13 14 14 14 11 12 5 5 4 2 4 3 2 5 5 11 8 5 8 6 4 8 3 4 3 6 4 3 7 8 8 12 9
10 9 9 9 11 12 14 14 17 16 16 16 14 15 13 12 14 12 13 8 4 4 3 1 1 2 3 4 2 6 2 6 8 11 6 7 4 4 3 5 12 9 5 3 4 8 6
9 8 9 9 11 12 15 14 16 16 17 17 15 13 13 12 13 11 5 3 4 3 3 1 2 2 2 7 2 4 4 4 8 6 5 1 9 16 10 6 4 7 5 6 3 9 7
11 8 8 9 10 12 14 16 15 16 17 16 15 13 13 12 13 7 2 2 2 2 1 2 4 2 2 1 2 5 3 2 7 10 7 3 3 7 10 7 6 9 7 3 2 9 7
10 7 6 9 9 12 14 15 16 16 16 16 14 13 13 13 11 3 2 2 3 2 2 1 0 1 2 5 3 5 3 4 10 6 5 3 5 6 10 6 7 2 8 5 6 5 2
10 8 6 8 9 11 13 14 15 15 15 16 14 14 13 11 2 1 1 4 3 2 2 1 2 1 1 2 4 3 2 3 4 7 4 3 9 11 7 8 6 3 5 7 10 9 5
10 7 6 6 8 11 13 15 15 16 16 15 15 15 11 4 3 1 2 4 3 3 3 1 1 2 2 2 3 5 2 1 5 7 3 2 11 15 12 7 6 4 5 6 4 4 3
11 8 5 5 8 10 12 14 15 16 15 16 16 13 3 3 2 2 3 2 1 6 2 3 1 1 3 2 0 2 3 4 5 6 1 5 2 3 5 2 1 8 6 7 4 3 2
10 8 5 5 7 9 12 13 15 16 16 16 15 8 6 3 2 3 3 2 4 5 4 4 3 2 1 1 1 2 2 5 4 5 4 5 3 2 3 6 4 5 6 3 1 1 4
13 9 5 5 6 8 10 14 14 15 15 14 6 4 4 1 1 4 2 4 6 1 4 3 4 2 2 3 1 5 5 3 1 4 2 3 8 2 5 4 6 3 4 5 7 4 3
13 10 6 4 5 7 10 12 13 14 13 9 4 2 2 3 4 1 2 5 6 4 1 7 5 3 1 2 3 0 2 3 3 3 3 4 4 3 3 1 2 3 1 3 7 3 2
15 11 6 4 4 6 10 11 12 14 11 3 3 2 2 3 1 1 2 2 1 3 6 1 3 5 5 3 3 1 1 1 3 2 1 3 6 4 2 0 5 3 6 3 3 4 4
16 12 7 4 2 5 8 10 12 14 6 7 4 3 2 1 1 0 0 4 3 5 4 5 4 3 2 5 5 4 4 2 2 2 1 4 4 3 3 2 6 3 1 4 4 2 3
17 12 8 4 2 4 7 9 12 12 4 5 3 3 1 1 1 1 2 5 2 0 3 2 2 4 2 3 5 0 5 1 5 5 4 3 5 5 2 1 3 3 4 5 4 4 1
18 14 10 6 1 3 7 9 11 10 6 4 3 2 2 1 1 3 4 3 0 3 3 3 2 2 6 5 4 3 2 2 6 5 6 5 2 5 2 3 2 3 4 3 3 3 5
20 16 11 7 2 2 6 8 12 9 5 4 4 3 1 1 1 1 3 4 1 2 3 2 2 3 4 3 4 4 2 2 3 2 5 5 3 5 6 4 5 6 5 5 3 3 4
21 17 12 8 4 1 5 8 11 7 6 4 3 2 1 3 2 1 1 2 2 3 3 7 5 5 2 4 3 3 2 3 5 4 4 4 3 2 1 1 2 3 4 10 13 14 11
21 18 13 10 5 2 5 8 10 5 5 5 5 4 2 1 1 1 4 4 3 5 4 3 5 5 5 5 2 5 5 2 3 4 3 4 1 2 4 3 1 5 7 7 13 17 14
22 19 15 11 7 5 5 7 11 9 4 4 1 2 4 3 1 3 0 1 2 2 4 5 2 3 7 2 2 2 1 2 5 7 4 4 5 3 2 3 3 6 10 12 5 6 9
22 19 15 12 9 7 6 8 9 11 6 4 3 4 4 1 3 2 1 2 3 3 2 4 5 3 2 5 0 0 6 7 7 5 4 6 4 3 2 2 2 4 2 1 9 6 7
23 19 16 13 11 9 8 8 8 10 11 5 3 4 4 4 1 3 5 3 2 4 4 3 5 0 3 2 3 4 5 2 3 3 3 3 4 3 3 2 6 2 1 2 2 4 3
24 20 17 14 13 11 9 8 7 7 9 5 3 1 4 7 2 3 2 4 3 4 1 3 3 5 1 3 3 3 3 3 1 2 3 4 5 4 2 1 3 4 2 2 2 2 3
26 22 18 16 14 11 9 7 6 7 8 5 3 2 5 6 2 2 3 2 0 0 1 1 5 7 2 1 2 2 2 2 3 5 4 2 2 4 3 3 6 6 4 5 2 4 6
25 22 19 17 15 11 10 8 6 7 6 4 2 2 4 5 1 3 3 3 2 3 2 3 1 3 4 4 2 1 2 1 2 1 3 5 4 3 1 3 5 5 3 3 4 6 7
26 24 20 17 15 12 10 7 6 6 7 5 4 2 2 6 4 1 2 2 2 1 2 2 3 3 1 1 2 2 2 3 1 1 3 0 2 2 6 6 1 5 4 4 1 4 6
Wind_Direction
322 334 337 346 358 349 350 344 343 342 343 347 343 346 348 348 350 357 354 355 359 8 15 17 29 30 45 312 256 102 329 358 309 273 182 180 157 147 170 165 132 197 160 188 215 133 98
314 323 328 341 346 347 343 344 349 343 341 337 343 345 343 349 340 345 347 349 345 357 5 20 21 339 5 241 277 257 329 334 264 205 177 201 170 186 169 173 162 182 184 197 182 169 251
306 311 319 331 334 338 340 331 339 336 336 344 345 344 339 339 341 329 332 330 338 333 345 358 1 347 263 262 212 280 337 197 259 193 168 188 208 142 162 131 156 124 162 138 175 166 169
294 301 310 321 330 333 333 333 336 338 338 342 345 342 343 333 329 333 324 323 334 303 325 348 24 53 263 254 49 350 294 275 214 187 166 166 179 115 96 92 48 132 140 176 158 158 167
277 290 301 312 324 323 325 328 334 335 334 340 342 342 343 334 327 329 326 323 316 294 298 353 59 81 304 316 69 292 282 286 155 153 151 133 174 143 73 126 110 205 180 180 172 183 159
258 279 293 302 315 319 319 330 334 332 334 333 343 336 342 333 323 326 322 317 295 4 314 256 184 61 356 307 242 265 53 16 165 139 138 177 172 126 106 168 189 177 117 139 161 182 170
247 265 283 293 308 316 318 328 331 335 333 330 335 331 335 331 321 320 354 15 23 344 25 198 201 231 298 298 281 354 50 335 177 88 166 308 171 187 161 149 126 117 121 120 133 172 173
237 245 273 289 303 312 321 326 332 329 328 327 334 336 334 327 318 312 79 149 199 181 110 224 269 282 264 299 320 3 66 42 163 131 127 123 117 148 126 128 125 137 124 155 70 170 165
234 239 262 286 306 316 322 334 330 326 329 326 333 331 330 326 316 53 188 219 125 149 73 326 185 342 326 343 348 4 59 102 110 101 80 107 155 162 141 132 114 85 160 176 151 138 251
215 234 257 283 306 319 324 328 319 327 327 324 331 329 327 322 14 245 226 171 130 134 81 110 64 26 323 348 17 22 10 94 48 99 75 6 147 158 162 151 128 137 187 156 141 138 194
206 212 244 276 306 318 326 322 325 332 327 329 329 328 318 283 183 131 274 151 103 70 92 65 59 297 277 77 170 356 313 132 95 121 118 69 168 155 169 158 145 191 145 129 107 98 122
193 204 232 274 300 320 330 325 334 327 328 331 331 319 300 135 151 235 134 105 81 45 49 113 332 88 34 30 92 77 21 53 58 82 72 257 83 96 170 127 181 134 93 58 61 86 283
184 202 214 269 302 321 333 329 330 324 334 339 338 330 143 128 186 138 116 62 29 97 201 143 119 178 222 108 146 136 90 128 144 132 189 83 76 58 60 102 34 86 89 85 101 191 221
183 189 195 263 296 328 336 329 332 325 338 343 18 64 95 127 109 129 70 40 62 255 58 151 122 87 138 163 65 167 141 142 100 114 77 112 139 24 345 109 154 171 148 149 174 187 212
179 183 185 247 300 333 334 331 327 330 339 355 127 1 62 24 117 339 89 62 201 215 127 132 96 119 166 230 151 35 66 137 148 141 129 121 94 143 59 126 96 183 162 132 103 29 66
177 176 181 235 303 333 324 329 330 329 336 91 106 84 26 314 148 19 74 274 144 210 115 102 172 193 162 165 83 110 220 135 123 170 199 173 106 32 107 244 41 135 155 74 10 136 236
173 173 175 219 284 323 325 331 332 331 337 146 69 87 315 31 37 142 139 231 253 208 191 157 187 133 106 137 155 182 204 15 114 117 43 133 84 116 105 216 167 128 114 54 111 119 183
168 171 170 197 252 335 327 335 336 330 133 84 109 88 346 64 260 343 236 205 248 40 170 237 169 96 68 112 154 180 209 257 175 164 131 196 120 127 128 88 125 105 171 150 142 236 127
166 166 170 176 205 349 333 343 337 324 189 131 96 89 89 88 308 285 282 285 15 27 36 26 67 87 146 176 112 220 163 277 166 160 165 185 87 104 116 157 351 188 201 151 122 69 188
162 163 167 173 147 9 349 352 341 322 183 90 105 102 126 213 19 260 335 353 24 30 47 17 34 78 114 81 20 147 118 110 155 100 91 89 108 149 177 187 131 171 203 167 158 152 192
160 161 168 165 145 50 9 2 350 336 181 94 36 178 189 175 236 230 7 324 309 42 12 15 29 35 12 109 82 94 80 89 52 26 37 78 95 74 316 107 126 178 195 201 217 227 221
159 161 168 158 156 103 31 11 3 14 118 81 129 137 45 122 271 157 356 355 37 329 40 0 81 22 46 89 61 175 135 132 177 69 62 6 110 91 8 20 208 250 239 220 228 243 255
161 159 167 158 159 101 56 31 17 24 110 109 177 21 103 319 357 119 14 31 26 280 7 63 298 104 60 18 304 291 273 129 152 138 137 150 136 113 242 340 291 278 236 211 207 232 225
160 161 162 159 152 119 86 58 46 30 83 119 162 111 107 54 78 73 322 107 47 2 105 347 22 78 21 323 333 46 56 84 86 56 120 132 109 87 184 6 354 255 358 202 215 265 234
159 161 158 161 148 126 107 83 85 69 57 88 133 116 120 102 53 37 19 24 13 350 39 38 19 0 298 16 61 54 357 60 38 47 80 102 112 85 115 193 285 11 27 126 152 313 200
159 157 159 160 147 129 118 100 91 130 113 87 69 84 96 121 2 289 31 27 55 354 46 19 7 314 19 68 79 140 193 194 179 92 66 110 97 103 136 127 256 240 259 201 118 288 224
157 159 160 160 148 133 120 102 84 98 110 108 81 80 88 100 351 38 82 76 31 196 118 343 334 353 348 82 94 142 230 206 142 164 159 129 153 176 183 233 285 251 275 149 79 283 335
152 158 163 157 143 136 126 111 86 108 138 85 118 21 112 97 25 25 46 63 15 18 88 332 6 1 10 68 76 5 64 311 34 174 177 170 147 206 164 194 283 352 4 40 298 309 306
159 156 163 151 141 140 129 108 82 101 126 98 78 341 52 87 141 97 102 115 90 164 158 11 119 45 24 85 64 71 40 28 334 275 338 66 182 220 184 218 73 13 281 100 20 293 320